Wind_Speed
18 21 23 24 24 24 24 23 22 22 22 23 24 23 22 20 19 18 17 17 16 16 18 21 21 20 20 19 19 19 19 19 19 18 18 18 18 18 17 17 17 18 18 18 18 18 18 18 17 17 17 18 19 20 20 21 22 22 23 22 22 22 21 20 19 18 19 19 18 18 18 17 17 17 16 15 14 14 15 17 19 20 20 19 18
21 23 23 24 23 24 23 23 22 22 22 23 24 23 22 20 19 18 17 17 16 16 17 20 21 20 20 19 18 18 18 18 18 17 17 18 18 18 17 17 17 17 18 18 19 19 19 19 18 18 19 20 20 21 22 23 24 24 23 22 22 21 21 19 17 16 16 15 15 16 16 16 17 17 16 15 16 15 16 16 17 19 19 18 18
23 25 24 24 23 23 23 22 22 21 22 23 24 23 22 20 19 18 17 17 16 15 16 18 20 20 19 19 18 17 18 17 17 16 17 17 18 17 17 17 17 17 18 18 18 19 19 20 20 20 20 21 22 22 23 24 25 24 23 24 24 24 24 22 20 17 16 14 12 11 13 15 16 16 15 15 15 15 16 17 17 18 18 18 18
22 25 25 25 23 23 23 23 22 22 22 22 23 22 22 20 19 18 17 16 16 16 16 17 19 19 18 18 18 17 17 16 16 16 16 17 18 18 17 17 17 17 17 18 18 19 19 20 20 21 22 22 23 24 26 26 27 27 27 27 26 26 25 25 23 19 17 16 14 11 10 11 13 13 13 13 14 14 15 17 17 17 16 16 17
22 26 25 25 23 23 22 22 22 22 22 22 22 21 21 20 19 18 17 16 16 16 16 16 17 18 17 17 17 16 16 15 15 15 16 16 17 17 17 17 17 17 17 17 18 19 19 20 20 22 22 23 24 25 27 29 29 29 28 27 25 24 23 22 21 18 17 15 15 13 9 8 10 11 10 11 12 13 14 15 17 17 16 16 16
23 27 25 25 23 23 22 22 22 22 22 22 21 20 21 20 19 18 17 16 16 16 16 16 16 17 16 16 16 16 15 14 14 14 15 16 17 17 17 17 17 16 17 17 18 18 19 19 20 21 22 23 25 27 29 30 30 29 28 25 23 22 20 18 16 15 15 13 12 12 11 6 8 9 9 9 11 11 12 12 13 15 16 16 15
25 26 26 25 23 23 22 22 22 21 22 22 21 20 20 20 19 18 17 16 16 16 16 16 15 15 15 15 15 15 14 13 13 14 15 16 16 16 17 17 17 16 17 17 17 18 19 19 19 20 22 23 25 27 28 29 29 28 27 25 22 21 19 17 14 11 10 7 6 9 11 7 8 10 10 9 10 10 10 10 11 12 13 15 15
26 26 25 24 23 22 22 22 21 21 21 21 21 20 19 19 19 18 17 16 15 15 15 15 15 14 14 13 14 14 14 12 12 13 15 15 16 16 16 17 17 16 16 17 17 18 19 19 19 20 22 23 24 26 27 28 28 27 25 23 22 21 19 16 14 11 9 7 4 7 9 8 11 12 12 10 10 10 10 10 10 10 10 12 14
26 25 25 23 23 22 22 22 21 21 21 21 20 19 18 18 18 18 17 16 15 15 15 14 14 13 13 13 12 13 13 12 12 12 14 15 16 16 16 16 16 16 16 16 17 18 18 19 19 20 21 23 24 26 27 28 27 26 24 23 23 22 19 15 13 10 8 6 4 7 9 10 12 13 14 12 11 11 10 10 10 10 9 10 11
25 24 23 22 22 22 22 21 20 20 20 20 20 19 18 17 17 17 17 16 15 14 14 14 13 12 12 12 12 12 12 12 11 11 13 15 16 16 16 16 15 15 16 16 17 17 18 18 19 20 21 22 24 27 28 27 26 25 25 23 22 20 17 14 12 10 6 3 3 7 9 9 12 14 14 13 12 12 10 10 11 11 10 10 11
23 23 22 22 22 21 21 21 20 20 20 20 19 18 17 17 16 16 16 15 14 14 13 13 13 11 11 11 11 11 11 11 11 11 11 14 16 16 16 16 15 14 15 16 16 17 17 18 18 19 20 22 25 28 28 27 27 26 25 23 21 18 15 12 10 8 4 1 3 6 8 9 13 15 14 13 13 12 12 12 12 12 10 11 11
22 22 22 22 22 22 21 21 20 20 19 19 18 18 16 16 15 15 15 15 14 13 13 13 12 11 11 11 11 12 11 11 11 11 11 12 14 16 16 16 15 14 15 16 16 17 16 17 18 18 20 23 27 29 29 28 27 26 25 23 20 17 14 10 9 7 4 3 4 6 8 11 15 15 15 14 14 14 14 14 14 12 11 12 11
20 22 22 23 23 22 21 21 20 19 19 18 18 17 16 15 14 14 14 14 14 14 13 12 12 11 11 11 11 11 12 12 12 11 11 11 12 15 16 16 15 15 15 15 16 16 16 16 17 17 20 24 28 29 28 28 27 25 24 22 19 16 11 9 10 9 7 6 7 8 9 13 15 16 15 14 15 16 16 15 14 13 13 13 12
17 20 22 22 23 22 21 21 20 20 19 19 18 17 16 15 15 14 14 15 14 13 13 13 12 11 11 11 10 10 11 12 12 11 11 11 12 13 15 15 15 15 15 15 16 16 16 16 16 17 20 23 26 27 28 27 26 24 23 21 18 14 9 8 9 8 7 8 8 9 9 12 15 15 15 14 15 16 16 16 15 14 14 13 13
14 19 23 23 24 23 22 22 21 21 20 19 18 17 16 16 15 15 15 15 14 13 13 12 12 12 12 11 10 10 11 12 11 11 11 11 11 12 14 15 14 15 16 16 16 16 16 15 16 17 19 21 23 25 27 26 25 23 21 19 17 13 8 7 7 5 6 8 9 9 8 12 14 14 14 14 15 15 15 15 14 14 13 13 13
14 19 24 23 23 23 23 22 21 21 20 19 18 17 17 16 16 15 15 15 14 14 13 12 12 12 11 10 11 11 11 11 11 11 11 10 10 12 13 15 14 15 17 17 17 16 15 15 16 17 18 20 21 24 26 24 23 21 20 19 16 12 7 6 7 7 8 9 9 8 7 10 13 13 14 14 14 14 14 14 14 13 13 13 13
15 20 25 23 22 23 23 23 22 21 20 20 19 18 17 16 16 16 16 16 15 14 13 12 12 11 11 12 13 12 11 10 10 10 11 10 10 12 12 14 14 14 17 17 17 16 15 15 16 16 17 19 20 22 23 22 21 20 20 19 15 10 6 6 8 9 10 9 9 7 6 9 11 12 13 13 13 13 14 14 13 13 13 13 13
16 22 26 24 24 23 23 23 22 22 21 21 20 19 18 17 17 17 17 17 17 16 15 13 12 13 13 13 12 12 11 9 9 9 10 10 10 12 11 13 13 13 16 17 17 16 15 15 15 15 16 17 19 19 20 21 20 20 20 19 14 8 5 6 8 8 8 8 7 7 6 6 8 10 11 11 12 12 13 13 13 13 13 12 12
18 24 26 24 24 24 24 23 23 23 22 22 21 20 19 18 18 18 18 18 18 17 16 15 15 15 14 13 12 12 10 8 7 7 9 10 11 12 11 11 12 13 15 16 16 15 15 15 14 15 15 16 16 16 17 19 20 19 19 17 13 7 4 4 5 6 7 6 6 6 6 5 5 7 9 10 11 11 11 12 12 12 12 12 11
20 26 25 23 24 24 25 24 24 23 22 21 20 20 19 18 18 19 19 19 19 18 17 16 16 16 14 13 12 11 9 8 7 6 7 8 10 12 11 11 11 12 14 15 15 14 14 14 14 14 14 15 14 15 17 19 19 19 17 14 11 7 3 2 3 5 7 5 5 5 6 5 4 5 7 8 8 9 10 10 11 12 12 11 11
23 26 23 24 24 23 25 25 25 24 22 21 20 20 19 19 19 19 20 20 19 18 17 18 18 17 14 13 11 10 8 8 7 7 6 7 9 12 12 11 10 12 14 15 15 14 13 13 13 13 14 14 15 15 17 19 18 17 16 12 8 4 2 2 3 5 7 4 4 4 4 4 4 5 6 7 7 7 8 9 10 11 11 10 10
25 26 24 25 24 24 25 24 25 24 23 22 21 21 20 20 20 20 21 21 20 19 18 19 18 16 14 13 11 10 9 8 7 7 6 6 7 11 12 10 10 11 14 15 15 14 13 12 12 12 13 14 15 15 16 16 14 13 14 13 8 2 1 2 3 4 6 4 4 4 3 4 5 5 6 6 6 6 7 8 9 9 9 9 9
25 27 25 25 24 24 24 24 25 24 23 22 21 21 21 21 21 22 22 22 20 19 19 18 17 15 14 13 12 11 10 9 7 6 6 6 6 8 9 9 8 9 12 15 15 15 13 12 11 11 12 13 13 14 13 11 9 10 12 13 8 3 0 3 3 2 6 6 4 4 3 3 4 5 5 5 5 6 7 8 8 8 8 8 8
24 25 25 24 24 24 25 25 25 24 23 22 22 22 22 22 23 23 23 22 21 20 19 17 16 15 14 14 13 11 10 9 8 8 7 7 7 7 7 7 7 8 11 14 15 15 13 13 12 11 11 12 12 12 11 9 8 9 9 10 7 2 2 5 5 3 5 6 5 4 3 3 4 4 4 4 5 6 7 7 8 8 7 7 7
23 23 24 24 23 24 25 26 25 24 24 23 24 23 22 23 24 23 23 23 22 21 19 18 17 15 15 14 13 12 11 10 11 10 9 8 7 6 6 5 6 8 10 13 15 15 14 13 12 11 11 11 11 10 10 8 7 7 7 8 5 1 4 7 6 6 5 6 6 4 3 2 3 4 4 3 4 5 6 6 7 7 6 6 7
24 24 24 24 24 23 23 25 25 24 24 24 24 23 22 23 24 24 23 23 22 21 20 19 18 16 15 15 14 13 12 11 11 11 9 8 7 6 6 5 5 6 8 11 14 15 14 13 12 11 10 10 8 7 7 6 7 8 5 6 5 6 8 9 8 7 6 6 6 5 3 2 3 4 4 3 3 4 5 5 5 6 6 6 6
25 24 25 25 24 23 22 24 25 25 25 25 24 23 23 22 23 23 23 23 23 22 21 20 18 16 16 15 15 14 13 12 10 10 9 8 7 7 6 5 5 5 6 9 12 13 13 13 12 12 10 8 5 7 8 6 7 7 5 5 5 7 10 9 8 7 6 6 5 5 3 1 3 3 4 3 3 4 4 4 4 5 5 6 6
24 24 26 26 24 22 22 24 25 26 26 26 24 23 23 22 22 22 22 22 22 22 20 19 17 16 15 15 15 14 14 12 10 11 10 8 7 7 6 6 5 5 5 6 9 9 9 13 14 12 10 8 7 9 9 7 6 5 5 6 7 9 11 9 7 6 5 4 3 3 2 1 3 3 3 3 4 4 4 4 4 4 4 5 5
23 24 26 26 23 22 23 24 26 26 27 26 24 24 23 22 22 22 22 21 21 20 18 17 16 16 15 15 16 15 14 12 11 12 10 7 7 7 7 7 6 7 5 2 7 7 4 9 12 10 9 10 8 7 6 8 6 4 5 7 8 11 12 10 7 6 5 3 2 2 1 1 3 4 4 4 4 4 4 4 4 4 4 4 4
22 22 24 26 24 24 24 25 26 26 27 26 24 24 24 23 22 22 21 21 20 18 17 16 16 16 16 16 16 15 14 13 13 13 11 8 9 9 8 7 7 7 3 1 4 3 2 6 9 9 9 8 7 5 7 9 8 6 7 7 8 12 13 11 10 8 6 3 3 2 1 2 3 4 4 4 3 3 4 4 3 4 4 4 4
20 19 22 24 25 25 25 26 26 27 28 27 26 26 25 22 21 22 22 21 20 18 17 16 16 16 17 17 16 16 15 14 14 13 11 10 10 10 8 8 8 7 2 4 4 3 5 8 9 8 7 7 8 11 11 10 10 7 8 7 7 10 12 12 11 8 6 4 3 2 1 2 3 3 3 3 3 3 4 4 5 5 5 5 4
20 20 22 22 23 24 24 25 27 28 28 28 27 27 25 22 21 22 22 21 20 19 16 15 16 17 18 17 16 16 15 14 14 13 12 12 11 9 9 9 9 9 7 10 9 9 9 8 8 7 7 8 12 12 10 12 12 8 7 6 6 9 11 12 11 8 6 5 3 1 1 1 2 3 3 3 4 4 5 5 6 7 6 5 4
20 21 22 19 19 23 25 26 28 29 28 28 28 27 24 23 22 21 22 21 19 18 16 15 16 17 18 18 16 16 16 15 14 12 12 12 11 10 10 10 9 10 10 12 12 12 9 8 8 8 8 10 9 8 9 10 9 7 6 5 7 9 10 11 11 8 6 4 2 2 1 0 2 3 3 4 5 6 6 6 7 8 8 6 5
19 20 18 14 14 20 26 27 29 30 29 30 29 27 24 24 22 21 22 21 19 17 16 15 16 17 18 18 17 17 17 16 13 12 12 11 10 10 10 10 9 9 10 11 10 9 7 7 8 7 9 7 7 7 8 7 5 6 6 6 7 9 10 11 10 7 6 4 3 2 1 1 2 3 4 5 6 6 7 7 7 7 8 7 6
14 15 13 12 13 19 26 29 29 30 32 31 29 26 24 23 22 21 22 21 18 17 15 15 17 17 17 17 17 18 18 16 13 12 13 12 11 11 10 10 9 10 11 11 10 9 7 6 7 7 8 5 6 7 6 5 5 5 5 6 7 8 9 10 9 7 7 5 4 3 2 2 3 3 4 5 6 6 6 7 6 7 8 9 9
11 11 12 12 15 18 24 27 28 31 33 31 29 27 24 23 23 22 22 20 17 16 15 14 16 17 17 17 17 17 17 15 13 13 13 13 12 11 11 10 10 11 12 11 10 9 8 7 7 8 8 6 5 6 5 5 5 5 6 7 8 8 9 10 9 8 8 6 5 4 3 3 3 3 4 5 5 6 6 7 7 7 9 11 12
11 12 14 15 16 18 23 25 28 32 31 30 30 28 25 24 24 23 22 19 15 15 14 14 16 17 18 18 17 16 16 15 14 14 13 13 12 12 12 12 12 12 12 11 10 10 8 7 7 9 8 8 7 6 5 7 6 5 7 8 8 9 10 11 10 9 8 6 5 4 3 3 4 3 4 5 5 6 6 7 7 8 9 10 11
13 15 14 14 14 17 23 25 27 29 29 31 31 27 24 23 21 19 18 16 14 14 14 14 16 17 17 17 16 15 15 15 15 15 14 12 12 13 13 13 12 11 10 11 11 10 8 8 8 9 8 7 6 6 6 6 5 5 6 7 8 9 9 9 9 8 7 6 5 4 3 4 4 4 5 6 6 7 7 7 7 7 6 6 7
15 13 12 12 13 18 23 25 26 27 28 30 29 23 20 19 16 14 12 11 12 13 14 14 16 16 17 17 16 15 14 15 16 15 15 13 12 13 13 13 11 10 10 11 11 10 9 9 9 10 9 8 6 6 7 5 3 5 6 8 9 8 7 7 7 6 6 6 6 6 5 5 5 6 6 6 7 8 7 7 7 7 6 5 5
13 11 12 13 14 18 22 24 24 25 26 25 25 21 17 16 14 11 10 10 11 12 13 14 15 16 16 17 16 15 14 15 15 15 16 16 14 13 13 12 11 11 11 11 12 12 10 10 10 10 9 7 6 6 7 7 6 9 8 9 9 8 7 6 6 6 6 7 7 7 7 7 7 7 6 6 7 7 8 8 7 7 6 5 5
11 11 13 13 14 17 19 20 18 17 19 19 20 17 14 13 10 8 9 11 12 15 15 14 15 16 16 16 15 14 14 14 15 15 15 16 16 14 13 13 12 13 11 12 13 13 10 9 10 10 8 7 7 7 9 9 9 11 12 11 9 7 7 6 6 7 6 6 7 7 8 9 8 7 6 5 7 7 7 7 6 6 6 6 5
12 11 13 14 16 15 16 19 16 11 14 17 17 16 14 13 9 9 12 13 15 16 16 15 15 15 16 16 15 14 15 15 16 16 15 16 16 14 13 14 14 13 12 12 14 13 11 10 9 10 11 10 9 9 10 9 8 10 12 13 11 9 7 7 7 7 7 7 8 8 9 9 8 7 6 6 7 7 6 6 6 7 6 6 5
13 11 13 17 18 15 16 20 16 12 15 17 18 16 16 16 13 13 14 15 17 17 17 16 16 17 17 16 15 14 15 16 16 17 17 16 15 14 14 14 14 13 13 13 14 14 12 10 10 10 11 12 10 9 9 8 8 9 12 13 14 13 10 8 9 8 8 8 8 8 8 8 7 7 7 7 7 6 6 6 7 7 6 5 5
15 14 17 18 17 14 16 18 15 14 15 17 18 16 16 18 17 15 16 16 17 17 18 18 18 19 18 17 16 14 15 16 15 16 15 15 15 14 14 14 13 14 14 14 14 14 12 11 11 11 11 12 12 10 9 8 8 10 12 13 14 14 12 11 11 10 9 8 8 7 7 8 8 8 8 8 7 6 6 7 6 5 4 4 3
17 19 19 16 14 14 16 17 15 15 15 15 17 18 19 21 20 21 22 21 20 21 22 21 21 21 19 19 17 15 14 14 14 14 14 14 16 15 15 15 15 15 14 14 14 13 11 11 11 12 13 12 12 11 12 11 10 9 11 13 12 11 12 14 13 11 10 9 8 7 7 9 9 9 8 8 8 7 6 5 5 5 4 3 3
22 24 18 12 14 15 18 17 14 15 14 14 17 20 22 22 22 24 25 25 25 24 25 25 24 22 19 20 18 16 15 15 14 15 15 15 16 16 16 15 14 14 13 13 13 12 11 12 12 13 14 13 12 12 13 14 13 10 10 11 9 8 13 17 15 12 11 9 8 9 9 9 9 9 9 9 8 6 5 5 5 4 4 3 2
25 23 14 10 16 17 18 16 13 13 13 13 16 19 21 22 21 21 21 22 22 22 23 23 22 21 20 21 20 18 17 16 16 17 16 16 15 15 15 14 12 13 12 12 12 11 12 12 13 13 13 13 12 12 13 14 14 13 11 10 8 7 11 14 14 14 14 11 9 9 9 9 9 8 8 8 7 6 6 6 5 4 3 3 3
24 21 12 12 18 17 15 15 14 14 12 13 15 17 19 21 20 20 19 18 16 18 21 22 22 21 20 20 20 19 18 16 16 17 16 14 14 14 14 14 13 12 12 12 12 12 13 13 14 14 13 13 13 12 13 14 15 14 13 10 8 8 10 11 10 11 15 16 13 11 10 9 10 8 7 7 7 6 6 5 4 4 3 4 4
20 19 12 13 17 18 15 15 16 15 13 14 16 17 19 19 19 20 19 16 15 16 19 22 23 22 21 20 20 18 17 17 16 16 15 13 13 14 15 14 14 13 13 12 12 13 14 15 15 15 14 14 13 12 12 14 15 14 13 12 10 10 12 11 9 9 12 15 15 15 14 12 11 9 8 9 9 7 6 6 5 3 4 4 5
16 17 16 16 17 18 16 15 17 17 17 19 19 20 20 20 21 21 18 17 17 18 19 22 23 22 21 21 19 18 18 18 17 15 13 12 13 14 14 14 14 14 14 13 13 13 14 14 15 14 13 13 13 13 12 12 14 14 13 13 12 12 14 13 13 12 12 12 13 15 15 14 13 11 10 10 10 9 8 6 5 4 4 4 5
17 19 19 17 15 17 18 17 17 17 19 21 22 23 22 22 23 22 20 18 19 20 21 23 24 23 22 21 20 20 21 20 18 16 13 12 13 14 14 14 13 13 14 14 13 13 13 14 13 13 12 12 12 13 12 11 13 14 14 14 12 11 12 12 14 15 14 13 13 15 14 11 12 12 12 11 9 9 8 6 4 5 5 4 4
Wind_Direction
168 164 160 155 152 148 145 145 145 146 145 144 142 141 138 135 129 124 123 124 129 135 141 141 139 137 136 135 134 134 132 130 126 123 120 117 113 109 107 105 101 98 97 96 96 97 97 98 99 102 105 107 106 104 102 100 100 102 102 97 91 89 87 87 89 90 91 91 90 90 88 86 83 80 80 81 87 94 93 90 86 81 79 80 80
167 164 163 157 154 147 146 146 147 148 147 146 144 142 139 136 130 126 124 125 129 136 142 143 142 140 139 138 137 136 134 132 129 126 123 119 116 113 111 107 104 100 98 96 97 98 98 99 100 101 103 104 105 103 102 103 103 103 102 96 91 88 84 84 84 85 84 87 90 92 90 86 82 77 76 77 88 101 99 92 88 83 80 81 82
166 164 163 157 155 149 147 147 147 149 148 147 145 143 140 137 133 129 126 126 130 136 143 144 144 142 141 141 140 139 137 135 132 129 126 122 119 117 114 110 106 103 100 99 99 100 100 99 100 100 100 103 105 105 103 102 102 101 97 92 88 82 79 76 75 82 82 80 82 87 91 89 86 82 77 78 89 102 103 94 90 87 83 82 82
168 162 160 155 154 149 147 148 148 149 149 148 146 144 141 139 136 132 130 130 133 137 142 143 144 144 144 144 144 143 141 139 136 132 129 126 122 121 117 113 110 106 103 102 102 101 101 101 101 100 101 105 106 105 103 101 99 97 92 87 83 78 74 69 68 74 73 69 69 72 85 91 90 88 84 82 88 97 103 100 96 92 89 86 82
169 162 157 154 151 148 148 148 148 149 150 150 149 147 144 142 139 136 134 135 137 139 142 141 143 144 146 147 149 150 147 145 140 135 132 129 126 124 121 116 113 110 107 105 104 103 104 104 104 103 104 106 107 105 103 101 98 94 89 85 81 77 73 68 68 65 57 54 54 55 58 82 97 93 91 88 91 94 100 105 104 98 92 88 84
168 161 155 152 150 147 147 147 148 149 150 151 151 150 147 145 143 141 139 141 142 142 143 141 141 142 146 148 151 154 152 150 146 140 137 134 130 129 126 121 116 114 113 109 106 106 106 106 107 107 107 108 108 106 104 102 97 93 89 86 82 78 73 67 65 58 49 41 36 40 32 52 106 100 101 99 97 97 96 101 105 104 98 92 88
166 158 153 151 147 145 145 146 147 149 151 153 154 154 151 149 147 146 145 145 145 143 143 142 141 141 145 148 151 154 154 152 149 146 143 139 136 134 130 124 120 119 117 113 111 109 108 108 109 111 111 110 109 109 107 104 100 96 92 88 82 78 75 72 70 71 76 67 37 28 18 44 106 100 103 107 103 101 96 93 94 101 104 100 93
160 154 151 148 145 143 144 145 147 150 153 156 157 158 155 154 152 151 151 150 148 144 142 142 141 142 145 147 149 153 153 151 153 151 146 144 141 138 135 128 124 123 120 118 117 113 111 111 112 113 114 113 112 112 110 107 102 100 96 89 83 79 80 81 83 96 112 112 71 26 23 64 97 96 97 100 103 103 99 95 90 91 98 102 101
155 150 148 145 143 141 143 145 146 151 155 159 161 161 159 157 158 157 156 154 151 147 144 142 142 144 147 150 151 152 152 152 154 153 151 150 146 143 141 134 129 127 125 123 121 117 115 114 115 115 116 117 117 115 112 110 106 102 97 92 87 84 88 91 91 100 108 104 67 30 38 67 88 93 95 91 90 94 99 100 95 92 92 96 100
152 146 145 143 142 141 144 145 147 153 157 162 164 164 163 162 162 162 160 158 155 152 148 145 145 148 151 154 154 152 154 155 154 154 156 155 151 150 149 141 137 134 131 129 125 121 119 117 116 117 118 121 121 119 116 112 108 104 101 98 94 94 100 102 99 107 113 97 37 28 39 65 85 88 90 86 82 84 93 98 98 96 92 94 96
150 144 145 145 143 143 144 147 150 155 159 163 166 167 168 167 167 166 164 161 159 158 154 150 151 153 155 156 156 156 157 159 160 158 159 160 157 156 154 149 146 143 138 135 130 125 121 119 118 119 121 122 124 122 119 113 109 106 103 100 101 106 110 106 103 110 121 101 20 29 47 75 85 85 86 83 82 82 86 89 93 95 91 90 93
149 148 149 149 146 146 147 149 152 155 160 164 167 170 172 172 170 169 166 164 165 164 160 157 158 159 160 161 161 161 163 164 165 165 166 167 163 160 159 156 154 151 147 140 132 129 125 123 121 122 123 124 125 124 118 113 109 106 103 100 103 110 112 105 96 82 59 59 50 51 68 81 84 86 85 83 86 86 85 85 86 89 88 83 83
148 153 153 152 147 148 150 150 153 155 160 164 169 172 174 174 172 172 171 170 170 171 168 167 168 167 168 170 170 169 170 170 168 169 172 177 172 164 163 160 159 159 153 144 137 134 131 128 125 124 125 126 125 123 117 113 109 106 104 102 102 106 108 96 75 51 42 61 67 72 83 88 87 87 86 85 86 86 86 85 85 84 82 82 78
140 154 156 152 148 149 150 151 153 156 160 165 169 170 172 173 173 175 176 175 175 176 176 175 175 175 177 177 181 177 174 174 171 170 170 180 180 170 167 165 163 162 155 147 143 140 137 133 128 127 129 129 127 122 117 113 110 108 107 105 105 107 101 85 68 39 42 67 74 83 91 93 90 89 89 86 85 85 86 87 88 85 82 81 75
135 153 158 153 150 151 153 155 155 156 160 161 164 166 169 171 174 177 177 178 179 181 181 179 180 182 183 183 184 177 171 171 170 169 168 176 182 177 171 169 168 162 154 150 149 144 141 138 133 131 133 134 129 122 117 114 112 109 106 104 105 106 94 80 74 35 43 67 77 91 98 97 95 95 94 89 88 88 88 89 88 85 82 79 75
138 150 157 156 155 155 156 156 155 156 156 157 160 163 166 169 173 176 177 179 181 184 183 182 184 185 186 181 174 167 167 171 172 169 169 176 183 184 176 174 173 159 153 153 152 148 145 142 137 135 136 138 131 122 118 115 112 109 105 102 104 108 101 84 74 52 59 69 75 85 94 101 101 99 98 96 94 92 90 90 88 86 83 80 78
146 154 159 160 161 161 160 158 157 157 156 157 159 161 163 167 171 174 176 179 182 183 184 184 184 182 176 170 163 160 164 170 174 171 171 175 183 189 182 180 174 155 156 157 154 151 148 144 139 136 137 138 132 125 121 116 114 112 108 104 105 113 115 93 73 59 66 71 68 69 71 92 102 100 100 100 98 95 93 92 90 88 86 84 81
156 160 163 166 167 167 166 163 163 162 161 159 158 159 161 165 168 171 174 177 179 180 182 181 177 173 166 166 164 160 164 169 170 170 172 174 183 191 187 184 173 156 161 161 157 155 150 147 140 134 134 137 136 129 124 122 118 114 111 109 111 123 122 87 67 56 60 61 57 61 64 80 98 101 103 103 101 100 97 96 93 92 91 89 85
159 164 167 170 172 172 173 170 170 169 166 162 160 158 158 161 164 168 172 174 176 177 179 176 171 169 165 167 168 166 167 169 166 163 169 174 184 190 190 186 169 162 167 163 162 160 155 150 142 135 130 132 138 135 129 126 121 116 115 117 124 140 139 84 56 42 36 35 42 51 59 70 87 95 101 101 100 101 100 99 98 96 94 92 91
161 166 169 176 178 176 174 172 170 170 168 165 163 159 155 157 161 167 170 172 175 175 175 172 171 169 168 169 171 174 173 167 160 155 162 172 185 190 191 185 166 167 170 167 167 164 160 154 146 140 130 126 131 136 132 126 121 116 114 118 131 143 135 64 30 12 5 10 33 42 50 60 74 78 87 95 97 99 100 100 99 98 98 96 94
164 169 175 181 182 178 176 174 172 171 168 165 162 158 155 157 161 166 169 172 173 173 172 171 172 171 172 174 177 179 175 168 158 154 156 164 183 191 194 184 167 172 173 171 172 167 164 158 152 145 135 126 124 131 132 126 120 115 109 105 115 128 107 25 334 333 344 358 28 35 45 50 66 71 76 87 90 94 96 99 98 99 99 98 96
167 173 181 185 183 182 182 180 176 174 172 168 164 159 159 162 165 167 170 172 171 171 173 174 174 175 177 178 180 178 173 170 161 157 153 152 173 189 197 190 171 172 175 175 176 173 169 164 158 150 140 132 127 130 132 126 117 113 110 101 102 125 93 353 311 339 358 8 24 21 31 41 57 67 70 79 82 86 89 93 94 95 95 94 93
171 177 184 188 187 185 186 186 182 179 177 173 168 165 164 166 168 170 171 171 171 173 174 176 177 179 179 178 178 175 173 172 164 162 158 151 159 177 195 199 185 175 175 179 179 176 173 169 163 155 146 139 137 138 139 133 116 115 119 115 118 138 241 300 290 353 8 1 5 8 10 28 44 56 63 70 75 77 79 82 84 86 90 91 91
176 180 185 190 190 189 189 189 187 184 180 177 174 171 169 170 171 172 172 172 173 175 176 178 179 181 181 179 179 178 178 173 167 172 172 166 163 171 186 198 197 185 179 181 183 180 176 172 165 161 156 147 146 146 142 135 123 131 135 127 118 100 255 269 283 308 346 352 347 346 350 13 34 49 57 57 62 66 70 74 74 77 81 83 86
180 182 186 189 190 190 190 191 191 187 183 181 179 176 175 173 172 173 174 174 174 175 177 178 179 182 183 183 183 184 183 176 176 180 178 177 177 178 178 190 201 195 187 182 184 185 182 176 169 169 166 160 158 151 140 132 144 162 152 133 125 160 241 257 275 287 309 332 329 326 333 7 35 49 52 45 48 56 62 66 69 71 72 74 75
184 186 188 188 189 189 190 194 193 190 186 183 182 180 179 175 172 175 177 177 176 177 178 179 182 185 186 185 184 185 186 184 185 183 180 183 183 175 173 182 192 195 193 186 185 187 189 185 178 178 175 176 177 156 147 153 177 181 166 157 171 204 226 247 265 279 294 311 313 310 316 354 37 48 49 46 47 53 58 60 67 69 68 69 66
189 191 191 190 191 191 193 198 195 193 189 185 185 182 179 176 173 178 181 180 179 180 181 181 184 186 185 184 183 185 189 190 189 183 182 188 180 171 174 172 167 175 188 189 186 187 193 192 189 189 183 184 180 150 161 190 198 182 181 199 210 226 231 241 258 272 289 302 300 297 302 344 43 54 54 51 52 53 54 54 59 62 64 66 64
193 194 194 194 196 197 199 201 200 198 192 187 187 181 177 175 175 181 184 184 184 185 185 183 184 185 182 182 184 187 189 191 191 183 182 184 173 168 170 163 149 142 153 177 182 181 193 201 200 196 184 179 160 142 165 206 217 184 184 214 231 241 242 241 249 262 276 292 287 287 303 41 66 69 65 56 56 54 52 52 53 55 60 65 67
199 201 199 200 203 203 200 201 204 201 193 188 185 180 176 174 176 183 187 190 190 189 188 187 186 186 183 183 186 188 189 191 193 182 174 171 166 163 157 150 134 120 106 139 178 170 193 212 200 185 178 173 150 130 172 210 226 223 201 211 228 240 248 248 246 250 250 258 256 255 298 74 79 75 70 65 63 60 59 59 60 61 62 67 72
203 210 206 205 208 207 202 201 202 198 192 189 186 183 179 175 177 184 190 193 192 191 191 193 192 190 188 186 186 189 188 192 195 182 167 164 169 169 160 150 143 130 100 304 196 166 185 190 168 163 172 159 148 173 203 207 216 237 230 216 222 236 246 251 245 237 233 238 237 227 183 90 78 71 69 71 72 73 76 76 74 73 75 81 86
203 217 215 211 214 211 204 201 201 198 195 191 189 187 181 178 180 185 191 194 194 195 196 198 197 195 194 189 187 188 189 193 195 186 175 175 173 176 173 161 156 150 187 255 221 216 205 172 157 163 160 146 180 203 205 209 217 230 236 221 220 231 236 245 245 229 224 230 225 219 148 92 72 74 74 79 89 93 95 96 90 85 86 91 101
205 221 225 219 220 216 206 203 204 202 198 193 189 186 183 181 184 188 191 194 195 196 198 201 203 200 197 192 188 188 191 195 195 190 189 186 176 179 182 173 166 161 195 225 216 221 212 176 176 180 164 179 197 202 200 210 219 224 234 226 214 219 222 234 243 230 220 222 210 200 162 66 65 80 84 93 102 106 111 112 105 94 89 89 96
212 222 224 218 220 219 213 208 205 204 199 194 189 185 186 185 187 190 190 194 196 198 200 203 206 201 195 193 193 194 196 198 196 194 195 190 182 183 182 177 176 169 190 213 209 211 202 175 190 187 192 203 183 177 193 204 214 216 219 208 198 210 215 226 237 230 220 220 207 201 214 102 90 87 92 105 104 107 114 115 107 94 85 84 88
217 218 219 220 223 218 215 211 204 203 200 193 187 185 190 189 188 190 191 196 200 202 204 203 201 194 194 197 199 200 199 202 202 198 196 192 189 189 185 180 183 182 194 203 194 194 190 185 198 192 208 208 144 165 197 196 200 195 193 183 192 209 210 216 223 220 218 213 204 208 204 140 109 95 99 111 110 111 112 107 103 92 81 81 88
215 216 224 235 234 220 212 208 204 203 198 190 187 188 191 190 189 192 195 198 202 206 206 202 199 196 200 202 202 202 201 204 205 202 198 196 196 196 196 194 192 190 193 194 185 186 191 197 208 201 216 212 140 173 189 174 179 173 175 173 183 197 197 206 211 209 211 204 203 200 179 154 127 112 110 116 120 117 113 109 103 95 85 83 87
213 228 246 251 240 221 211 208 205 203 195 184 186 190 190 190 191 194 196 198 202 205 203 199 198 202 205 204 204 203 202 204 204 204 202 201 204 203 204 203 199 192 189 192 186 188 188 193 206 195 211 220 168 167 162 157 173 162 158 158 164 177 187 200 201 198 203 201 200 187 173 170 152 142 126 123 131 126 119 116 108 107 101 90 87
228 253 264 257 242 223 214 209 202 201 193 180 183 187 188 190 192 193 197 200 201 200 198 196 194 198 202 201 202 201 203 205 204 208 209 208 210 204 203 204 201 193 190 194 187 190 190 186 195 187 207 226 189 169 147 138 154 160 154 151 158 170 185 199 194 192 204 204 194 186 188 177 164 163 143 130 135 135 126 120 115 118 115 99 92
251 266 261 248 235 220 214 207 200 201 191 179 178 180 183 187 188 189 197 203 199 196 197 197 194 195 197 197 200 202 204 206 206 211 211 208 205 201 203 205 202 195 191 194 190 197 195 183 191 190 206 225 194 173 158 150 161 164 157 154 163 172 182 195 191 189 204 207 201 197 190 177 176 172 154 138 134 138 133 126 125 127 127 115 105
258 258 237 228 217 206 207 204 201 201 192 181 174 172 176 180 179 178 189 199 196 200 199 193 193 196 199 199 201 200 200 203 205 209 207 204 203 201 205 206 204 201 198 201 200 201 198 191 195 196 206 216 199 175 172 186 170 144 156 158 161 176 182 187 187 185 197 206 208 200 186 182 187 174 161 149 135 137 139 134 133 131 133 129 119
256 244 217 216 205 196 204 207 203 197 190 180 171 172 177 173 171 170 184 197 200 207 201 189 192 196 201 202 201 197 194 199 204 205 203 204 206 202 204 209 208 206 206 207 204 202 202 201 197 196 203 198 188 187 182 183 156 139 149 154 153 166 175 182 184 176 183 197 204 200 190 186 185 176 170 157 140 139 139 132 129 130 132 132 126
242 234 215 207 195 192 204 213 212 195 180 172 166 176 192 178 169 178 195 203 201 204 200 193 194 196 199 201 198 195 193 196 200 201 201 204 207 201 201 211 214 212 211 208 206 205 205 204 196 191 191 175 167 181 177 174 169 154 149 149 148 155 163 168 173 175 179 188 195 195 193 191 181 173 173 159 147 144 136 127 128 130 130 132 131
233 224 207 192 183 182 194 208 219 199 167 165 165 172 186 176 173 197 202 203 199 201 201 197 198 196 197 200 195 192 194 192 191 195 203 206 205 204 205 206 212 216 215 209 206 206 203 201 201 192 190 187 176 177 175 172 178 170 159 152 145 147 155 157 162 171 181 190 193 188 188 191 180 173 176 166 155 147 134 131 134 131 131 136 145
225 206 188 182 180 182 196 203 205 189 166 166 170 172 174 172 180 196 196 197 198 200 201 198 198 195 195 200 193 186 189 188 188 195 205 206 201 208 213 205 206 213 216 213 205 204 203 197 200 195 191 192 184 181 184 181 184 177 168 158 148 146 147 157 164 164 181 196 194 187 187 190 185 181 180 171 164 151 136 140 137 131 135 142 155
206 188 174 174 180 188 201 201 192 188 182 173 175 178 179 180 185 191 195 199 199 199 199 197 198 194 193 198 191 182 184 186 190 197 200 200 199 206 213 210 207 210 215 214 205 203 204 198 198 194 191 191 187 186 185 189 200 188 171 160 156 156 154 163 168 162 176 190 184 187 190 186 186 186 180 172 165 148 139 152 150 143 155 158 165
196 180 170 175 192 195 194 194 187 190 194 182 179 183 187 189 187 187 193 198 198 197 194 191 192 191 189 192 190 183 184 187 190 192 191 193 200 203 206 209 207 206 211 211 204 202 202 203 201 192 191 193 193 192 182 182 198 199 181 165 162 174 172 165 163 160 173 183 175 177 179 174 181 181 170 162 156 145 146 161 161 162 174 169 167
181 168 163 189 211 201 189 190 191 193 197 192 189 191 194 195 191 188 190 191 191 193 192 188 189 191 185 183 185 182 183 188 188 189 190 193 200 202 200 205 204 201 207 211 205 202 201 202 200 194 193 193 193 196 188 183 188 193 193 183 179 192 182 167 161 157 163 177 173 168 169 164 166 164 150 147 153 156 161 164 166 175 177 163 158
177 156 150 203 213 203 190 191 201 204 200 195 196 198 199 199 198 196 195 193 191 189 189 187 188 191 184 177 180 181 181 186 187 187 188 190 193 195 195 197 195 192 198 205 203 200 198 192 192 197 198 196 196 197 195 189 186 189 192 196 195 189 181 173 170 162 156 163 174 173 171 161 157 156 146 145 155 163 170 173 179 183 165 140 128
176 153 158 202 206 205 199 201 209 207 200 199 206 209 204 204 204 204 205 206 202 190 184 184 184 185 182 177 178 179 178 181 182 181 180 185 186 184 189 189 183 182 187 194 194 190 187 182 188 198 198 200 200 197 198 193 188 189 186 186 186 170 174 180 181 178 165 158 161 170 171 164 161 158 152 146 150 163 170 175 185 172 140 119 113
169 162 188 202 200 205 206 213 216 210 209 212 216 217 212 211 211 209 211 213 210 199 188 182 179 177 175 176 179 181 178 177 180 177 174 184 183 178 184 179 172 176 181 186 185 180 178 178 186 194 194 199 201 192 193 190 186 189 185 183 184 166 167 175 181 197 185 165 160 167 167 163 160 156 152 146 149 166 171 174 184 159 126 115 109
175 170 194 201 201 206 208 221 227 221 219 220 220 219 215 215 215 214 216 215 210 204 194 184 178 175 172 172 177 179 175 173 177 176 171 179 177 174 180 176 170 174 175 177 181 179 179 182 188 193 193 198 200 191 188 186 183 186 188 189 189 175 172 177 180 189 194 185 175 170 165 162 159 153 146 145 156 169 169 170 173 145 132 125 114
174 167 181 189 196 206 208 215 222 222 225 225 223 221 216 216 218 217 215 214 211 204 194 186 181 177 172 170 171 172 170 171 174 174 171 174 172 170 175 175 173 173 170 171 176 178 182 189 196 199 199 203 203 195 190 188 183 183 188 191 192 184 178 184 187 188 191 191 180 168 163 165 164 152 139 142 162 169 161 163 161 141 140 133 125
Height
1506 1508 1510 1511 1513 1514 1516 1517 1519 1521 1522 1524 1525 1527 1528 1530 1531 1532 1534 1535 1536 1537 1539 1540 1541 1541 1543 1544 1545 1545 1546 1546 1546 1547 1547 1547 1547 1547 1547 1546 1546 1546 1546 1546 1546 1546 1546 1546 1546 1546 1546 1547 1547 1548 1548 1549 1549 1550 1551 1551 1551 1552 1552 1552 1552 1552 1552 1552 1552 1552 1553 1553 1553 1553 1553 1553 1553 1553 1553 1553 1553 1553 1553 1554 1554
1505 1508 1510 1512 1514 1515 1517 1517 1520 1521 1523 1525 1526 1528 1529 1531 1532 1533 1534 1535 1537 1538 1539 1540 1541 1542 1543 1544 1545 1546 1546 1547 1547 1548 1548 1548 1548 1548 1548 1548 1547 1548 1548 1548 1548 1548 1548 1547 1548 1547 1548 1548 1549 1549 1550 1550 1550 1551 1552 1553 1553 1553 1554 1554 1554 1554 1554 1554 1554 1554 1554 1554 1554 1554 1554 1554 1554 1554 1554 1555 1555 1554 1555 1555 1555
1505 1508 1510 1512 1514 1515 1517 1518 1521 1522 1524 1526 1527 1529 1530 1532 1533 1534 1535 1536 1537 1538 1540 1541 1542 1542 1544 1545 1546 1546 1547 1548 1548 1549 1549 1549 1549 1549 1549 1549 1549 1549 1549 1549 1549 1549 1549 1549 1549 1549 1549 1549 1550 1551 1551 1552 1552 1553 1554 1554 1555 1555 1555 1555 1555 1555 1556 1556 1556 1555 1555 1555 1555 1555 1555 1555 1555 1555 1555 1556 1556 1556 1556 1556 1556
1505 1507 1510 1512 1514 1516 1518 1519 1521 1523 1525 1527 1528 1530 1531 1533 1534 1535 1536 1537 1538 1539 1540 1541 1542 1543 1544 1545 1546 1547 1547 1548 1549 1549 1550 1550 1550 1550 1550 1550 1550 1550 1550 1550 1550 1550 1551 1551 1551 1550 1551 1551 1552 1552 1553 1553 1554 1555 1555 1556 1556 1556 1556 1556 1556 1556 1557 1557 1557 1557 1557 1556 1556 1556 1556 1557 1557 1556 1556 1557 1557 1557 1557 1557 1557
1506 1508 1510 1512 1514 1517 1518 1520 1522 1524 1526 1527 1529 1530 1532 1533 1534 1535 1536 1537 1538 1539 1540 1541 1542 1543 1544 1545 1546 1547 1548 1549 1549 1550 1550 1551 1551 1551 1551 1551 1551 1552 1552 1552 1552 1552 1552 1552 1552 1552 1553 1553 1553 1554 1555 1555 1556 1557 1557 1557 1557 1557 1557 1557 1557 1557 1557 1557 1557 1557 1558 1558 1557 1557 1557 1557 1557 1557 1557 1558 1558 1558 1558 1558 1558
1506 1508 1511 1513 1515 1517 1519 1521 1523 1525 1526 1528 1529 1531 1532 1533 1535 1536 1537 1538 1539 1540 1541 1542 1543 1544 1544 1545 1546 1547 1548 1549 1550 1551 1551 1552 1552 1552 1552 1553 1553 1553 1553 1553 1553 1553 1553 1554 1554 1554 1554 1554 1555 1555 1556 1557 1558 1558 1558 1559 1559 1559 1559 1559 1559 1558 1558 1558 1557 1557 1558 1558 1558 1558 1558 1558 1558 1558 1558 1558 1558 1559 1559 1559 1559
1507 1509 1512 1514 1516 1518 1520 1522 1524 1525 1527 1528 1530 1531 1532 1534 1535 1536 1537 1538 1539 1540 1541 1542 1543 1544 1545 1545 1546 1547 1548 1549 1550 1551 1552 1552 1553 1553 1553 1554 1554 1555 1555 1555 1555 1555 1555 1555 1555 1555 1556 1556 1556 1557 1558 1559 1559 1560 1560 1560 1560 1560 1560 1560 1560 1559 1559 1559 1558 1558 1558 1558 1558 1558 1558 1558 1558 1558 1558 1559 1559 1559 1560 1560 1560
1508 1511 1513 1516 1517 1519 1521 1523 1524 1526 1527 1528 1530 1531 1533 1534 1535 1536 1537 1538 1540 1540 1541 1542 1543 1544 1545 1545 1546 1548 1549 1550 1551 1551 1552 1553 1553 1554 1554 1555 1555 1556 1556 1556 1556 1556 1556 1556 1557 1557 1557 1557 1558 1558 1559 1560 1561 1561 1562 1562 1562 1561 1561 1561 1560 1560 1559 1559 1559 1559 1559 1558 1558 1558 1558 1558 1558 1558 1559 1559 1559 1560 1560 1560 1561
1510 1513 1515 1517 1518 1520 1522 1523 1524 1526 1527 1528 1530 1531 1533 1534 1536 1537 1538 1539 1540 1541 1542 1542 1543 1544 1545 1546 1547 1548 1549 1550 1551 1552 1553 1553 1554 1554 1555 1556 1556 1557 1557 1558 1558 1558 1558 1558 1558 1558 1558 1559 1559 1560 1561 1561 1562 1562 1563 1563 1563 1563 1562 1561 1561 1561 1560 1560 1560 1560 1560 1559 1559 1558 1559 1559 1558 1559 1559 1560 1560 1560 1560 1560 1561
1512 1515 1517 1518 1519 1521 1521 1523 1524 1526 1527 1528 1530 1532 1533 1535 1536 1537 1538 1540 1541 1541 1542 1543 1543 1544 1545 1546 1547 1548 1549 1550 1551 1552 1553 1554 1555 1555 1556 1556 1557 1558 1558 1559 1559 1559 1559 1559 1559 1559 1560 1560 1561 1561 1562 1563 1563 1564 1564 1564 1564 1564 1563 1563 1562 1562 1561 1561 1561 1561 1560 1560 1560 1559 1559 1559 1559 1559 1560 1560 1560 1560 1560 1561 1561
1515 1517 1518 1519 1520 1520 1521 1522 1523 1525 1527 1529 1530 1532 1534 1535 1536 1538 1539 1540 1541 1542 1543 1543 1544 1545 1545 1546 1547 1548 1549 1550 1551 1552 1553 1554 1555 1556 1557 1557 1558 1558 1559 1560 1560 1560 1560 1560 1560 1561 1561 1561 1562 1562 1563 1564 1565 1565 1565 1566 1566 1565 1564 1564 1563 1563 1563 1563 1563 1562 1561 1561 1561 1560 1560 1560 1560 1560 1560 1561 1561 1561 1561 1561 1561
1516 1517 1517 1518 1519 1520 1520 1522 1523 1525 1527 1528 1530 1532 1533 1535 1537 1538 1540 1541 1542 1543 1543 1544 1544 1545 1546 1546 1547 1548 1549 1550 1552 1553 1553 1554 1555 1556 1557 1558 1558 1559 1560 1560 1561 1561 1561 1561 1562 1562 1562 1562 1563 1564 1564 1565 1566 1566 1567 1567 1567 1566 1565 1565 1564 1565 1565 1564 1564 1563 1563 1562 1562 1561 1561 1561 1561 1561 1561 1561 1562 1562 1562 1562 1562
1515 1516 1517 1518 1518 1520 1521 1522 1523 1525 1526 1528 1529 1531 1533 1535 1537 1538 1539 1540 1542 1543 1543 1544 1544 1545 1546 1546 1547 1548 1549 1550 1552 1553 1554 1554 1556 1557 1557 1558 1559 1559 1560 1561 1562 1562 1562 1563 1563 1563 1564 1564 1564 1565 1565 1566 1567 1568 1568 1568 1568 1567 1566 1565 1565 1566 1566 1566 1565 1565 1564 1564 1563 1563 1563 1563 1562 1562 1562 1562 1563 1563 1563 1563 1563
1514 1516 1517 1518 1519 1520 1521 1522 1523 1524 1525 1527 1529 1530 1532 1534 1536 1537 1538 1540 1541 1542 1543 1544 1544 1545 1546 1546 1547 1548 1549 1550 1552 1552 1553 1554 1556 1557 1558 1558 1559 1560 1561 1562 1562 1563 1563 1563 1564 1564 1565 1565 1566 1566 1567 1568 1568 1569 1569 1569 1568 1568 1567 1566 1566 1567 1567 1567 1566 1566 1566 1565 1564 1564 1564 1564 1564 1564 1564 1564 1564 1564 1564 1564 1564
1513 1515 1517 1518 1518 1519 1520 1521 1522 1523 1525 1526 1528 1529 1531 1533 1534 1536 1537 1539 1541 1542 1543 1544 1544 1545 1545 1546 1547 1548 1549 1550 1551 1552 1553 1554 1556 1557 1558 1559 1559 1560 1561 1562 1563 1563 1564 1564 1565 1565 1566 1567 1567 1568 1568 1569 1569 1570 1570 1570 1569 1568 1568 1567 1567 1568 1568 1568 1568 1568 1567 1566 1566 1565 1565 1565 1565 1565 1565 1565 1565 1565 1565 1565 1565
1513 1514 1516 1518 1518 1519 1520 1521 1522 1524 1525 1526 1527 1528 1530 1532 1533 1535 1537 1538 1540 1541 1542 1544 1544 1545 1546 1547 1547 1548 1549 1550 1551 1552 1553 1554 1555 1557 1558 1559 1559 1561 1561 1562 1563 1564 1565 1565 1566 1566 1567 1568 1569 1570 1570 1570 1570 1571 1571 1571 1570 1569 1568 1567 1567 1569 1570 1570 1569 1569 1569 1568 1567 1567 1566 1566 1566 1566 1566 1566 1566 1566 1566 1566 1566
1511 1513 1515 1517 1517 1518 1519 1521 1522 1523 1524 1525 1527 1528 1530 1531 1533 1534 1535 1537 1538 1540 1541 1543 1544 1545 1546 1547 1548 1549 1549 1550 1551 1552 1553 1554 1555 1556 1558 1559 1560 1561 1562 1563 1564 1565 1566 1566 1567 1567 1568 1569 1570 1571 1571 1571 1571 1572 1572 1572 1571 1569 1568 1568 1569 1570 1571 1571 1571 1570 1570 1569 1568 1568 1567 1567 1567 1567 1567 1567 1567 1567 1567 1567 1567
1511 1512 1514 1515 1516 1517 1518 1520 1521 1522 1523 1524 1526 1527 1529 1530 1532 1533 1534 1535 1536 1538 1539 1541 1543 1544 1545 1547 1548 1549 1550 1551 1552 1553 1553 1554 1555 1556 1558 1559 1560 1562 1562 1563 1565 1565 1566 1567 1568 1569 1569 1570 1571 1572 1572 1572 1573 1573 1573 1573 1571 1570 1569 1569 1570 1571 1572 1572 1572 1571 1571 1571 1570 1569 1568 1568 1568 1568 1568 1568 1568 1568 1568 1568 1568
1510 1512 1513 1514 1514 1516 1517 1518 1520 1520 1522 1523 1524 1525 1527 1528 1530 1531 1532 1533 1535 1536 1538 1540 1542 1543 1545 1546 1548 1549 1550 1551 1552 1553 1554 1555 1555 1556 1558 1559 1561 1562 1563 1564 1565 1566 1567 1568 1569 1569 1570 1571 1572 1572 1573 1573 1574 1574 1574 1574 1572 1571 1570 1571 1571 1572 1572 1572 1572 1572 1572 1572 1571 1570 1570 1569 1569 1569 1569 1569 1569 1569 1569 1569 1569
1511 1512 1513 1514 1514 1516 1517 1519 1520 1521 1522 1523 1524 1525 1526 1527 1529 1530 1532 1533 1534 1535 1537 1539 1541 1542 1544 1546 1547 1549 1550 1551 1552 1553 1554 1555 1556 1557 1558 1560 1561 1562 1563 1564 1566 1567 1568 1569 1569 1570 1571 1572 1573 1574 1574 1575 1575 1575 1575 1574 1573 1572 1572 1573 1573 1573 1573 1573 1573 1573 1573 1573 1573 1572 1571 1571 1570 1570 1569 1569 1569 1569 1569 1569 1569
1511 1512 1513 1513 1515 1517 1518 1519 1520 1521 1523 1524 1526 1527 1527 1528 1529 1530 1531 1532 1533 1535 1536 1538 1540 1541 1543 1545 1547 1548 1550 1551 1552 1553 1554 1555 1556 1557 1558 1560 1561 1562 1563 1565 1566 1567 1568 1569 1570 1571 1572 1572 1574 1575 1576 1576 1576 1576 1576 1575 1575 1574 1574 1574 1574 1574 1574 1574 1574 1574 1573 1573 1573 1573 1572 1572 1571 1571 1570 1570 1570 1570 1570 1570 1570
1510 1511 1512 1513 1515 1517 1517 1519 1520 1521 1523 1525 1526 1527 1528 1528 1529 1530 1531 1532 1533 1534 1535 1537 1539 1541 1543 1544 1546 1548 1549 1550 1551 1553 1554 1555 1556 1557 1558 1560 1562 1562 1563 1565 1566 1567 1568 1569 1570 1571 1572 1573 1574 1576 1577 1577 1578 1578 1577 1576 1575 1574 1574 1575 1575 1575 1574 1574 1574 1574 1574 1574 1574 1574 1573 1573 1572 1572 1571 1571 1571 1571 1571 1571 1571
1508 1509 1511 1512 1515 1516 1517 1518 1519 1520 1522 1524 1526 1526 1527 1527 1528 1529 1530 1531 1532 1533 1534 1536 1538 1540 1542 1544 1545 1547 1548 1550 1551 1553 1554 1555 1556 1558 1559 1560 1562 1563 1564 1565 1566 1567 1569 1570 1571 1572 1573 1574 1575 1576 1577 1578 1578 1578 1577 1576 1575 1575 1575 1575 1575 1575 1575 1575 1575 1575 1574 1574 1574 1574 1574 1574 1573 1573 1572 1572 1572 1572 1572 1572 1572
1507 1508 1509 1511 1514 1515 1517 1518 1518 1520 1522 1523 1524 1525 1526 1526 1528 1529 1530 1531 1531 1532 1533 1535 1537 1539 1541 1543 1545 1546 1548 1549 1551 1553 1554 1555 1556 1558 1559 1560 1562 1563 1564 1565 1566 1567 1569 1570 1571 1572 1573 1574 1575 1576 1577 1578 1579 1577 1577 1576 1575 1576 1576 1575 1575 1575 1576 1576 1576 1575 1575 1575 1575 1575 1575 1574 1574 1574 1573 1573 1573 1573 1573 1572 1572
1505 1507 1509 1510 1512 1514 1516 1517 1518 1519 1521 1522 1523 1524 1524 1526 1527 1529 1530 1530 1531 1532 1533 1535 1537 1539 1541 1542 1544 1545 1547 1549 1550 1552 1554 1555 1556 1558 1559 1560 1561 1563 1564 1565 1566 1567 1568 1570 1571 1572 1572 1573 1574 1576 1577 1578 1578 1577 1577 1577 1576 1576 1576 1576 1575 1576 1576 1576 1576 1576 1576 1575 1575 1575 1575 1575 1575 1574 1574 1574 1574 1574 1573 1573 1573
1506 1507 1508 1510 1512 1514 1516 1517 1518 1519 1521 1521 1522 1523 1524 1525 1527 1529 1530 1531 1531 1532 1533 1535 1536 1538 1540 1542 1544 1545 1547 1549 1550 1552 1553 1555 1556 1558 1559 1560 1561 1562 1564 1565 1566 1567 1569 1570 1571 1572 1572 1573 1574 1575 1576 1577 1577 1577 1578 1578 1576 1575 1576 1576 1576 1576 1577 1577 1577 1576 1576 1576 1576 1576 1576 1575 1575 1575 1575 1574 1574 1574 1574 1574 1573
1506 1508 1509 1510 1512 1514 1515 1516 1517 1518 1520 1521 1522 1523 1525 1526 1528 1530 1531 1532 1532 1533 1534 1535 1537 1538 1540 1542 1543 1545 1547 1548 1550 1552 1553 1555 1556 1558 1559 1561 1561 1562 1563 1565 1566 1567 1569 1570 1571 1571 1572 1573 1574 1575 1576 1576 1576 1577 1578 1578 1577 1576 1575 1575 1576 1576 1576 1577 1576 1576 1576 1576 1576 1576 1576 1576 1575 1575 1575 1575 1574 1574 1574 1574 1574
1509 1510 1510 1511 1512 1513 1514 1514 1515 1517 1518 1520 1522 1524 1526 1528 1529 1531 1532 1533 1534 1535 1536 1537 1538 1539 1541 1542 1544 1545 1546 1548 1550 1551 1553 1554 1556 1558 1559 1561 1562 1562 1563 1564 1566 1567 1568 1569 1570 1571 1572 1573 1574 1575 1576 1576 1575 1577 1578 1578 1578 1576 1575 1575 1576 1576 1576 1576 1576 1577 1577 1576 1576 1576 1576 1576 1576 1575 1575 1575 1575 1575 1575 1574 1574
1512 1511 1511 1512 1512 1511 1511 1512 1513 1515 1518 1521 1523 1525 1527 1529 1531 1532 1533 1535 1535 1537 1537 1538 1539 1540 1542 1543 1544 1545 1547 1548 1550 1551 1553 1554 1556 1558 1560 1562 1563 1563 1564 1565 1566 1566 1567 1569 1570 1571 1572 1573 1574 1575 1576 1575 1575 1577 1578 1578 1578 1576 1576 1576 1576 1576 1576 1576 1576 1577 1577 1577 1577 1577 1577 1576 1576 1576 1575 1575 1575 1575 1575 1575 1575
1511 1512 1513 1512 1510 1509 1509 1511 1513 1516 1519 1521 1523 1525 1527 1529 1531 1532 1534 1536 1537 1538 1539 1539 1540 1541 1542 1544 1545 1546 1547 1548 1549 1551 1552 1554 1555 1557 1560 1561 1563 1564 1564 1565 1566 1566 1567 1568 1569 1570 1571 1572 1573 1574 1574 1575 1575 1577 1577 1577 1578 1576 1576 1575 1576 1577 1576 1576 1576 1576 1577 1577 1577 1577 1577 1577 1576 1576 1575 1575 1575 1575 1575 1575 1575
1510 1511 1512 1511 1510 1509 1510 1513 1515 1517 1518 1520 1522 1524 1526 1529 1531 1532 1534 1536 1537 1538 1539 1540 1541 1542 1543 1544 1545 1546 1547 1548 1549 1551 1552 1553 1554 1556 1559 1560 1561 1563 1564 1566 1566 1566 1568 1568 1569 1569 1570 1572 1572 1572 1574 1575 1575 1576 1576 1576 1577 1576 1575 1575 1575 1576 1576 1576 1576 1576 1576 1577 1577 1577 1577 1577 1576 1576 1575 1575 1575 1575 1575 1574 1574
1508 1509 1511 1510 1509 1510 1512 1514 1515 1517 1518 1520 1523 1525 1526 1528 1530 1531 1533 1535 1537 1538 1539 1540 1541 1542 1544 1545 1546 1546 1547 1548 1549 1550 1552 1552 1554 1556 1558 1559 1560 1561 1564 1566 1567 1567 1568 1568 1568 1569 1570 1570 1571 1572 1573 1574 1575 1575 1575 1575 1576 1576 1575 1575 1575 1576 1576 1576 1576 1576 1576 1577 1577 1577 1577 1577 1576 1576 1575 1575 1575 1575 1575 1574 1574
1507 1508 1510 1509 1509 1510 1511 1513 1515 1517 1519 1521 1524 1526 1528 1528 1528 1530 1532 1534 1537 1538 1539 1541 1541 1543 1544 1545 1546 1546 1547 1548 1549 1550 1551 1552 1554 1556 1557 1559 1560 1561 1564 1566 1567 1568 1568 1568 1568 1569 1569 1568 1570 1574 1573 1573 1574 1574 1574 1574 1575 1575 1575 1575 1574 1575 1576 1576 1576 1576 1576 1577 1577 1577 1577 1577 1576 1576 1576 1576 1575 1575 1575 1575 1575
1505 1507 1508 1508 1508 1509 1510 1512 1514 1517 1518 1521 1524 1526 1527 1528 1529 1530 1532 1534 1536 1538 1539 1541 1542 1542 1544 1545 1546 1546 1547 1548 1549 1550 1551 1552 1553 1555 1556 1558 1559 1561 1564 1566 1567 1567 1567 1568 1567 1569 1568 1566 1570 1573 1571 1573 1573 1573 1574 1574 1575 1575 1575 1574 1574 1575 1575 1575 1576 1576 1576 1576 1577 1577 1577 1577 1577 1576 1576 1576 1576 1576 1576 1575 1575
1503 1505 1505 1506 1506 1507 1509 1511 1513 1515 1517 1520 1524 1525 1526 1527 1529 1530 1532 1535 1537 1538 1539 1541 1542 1542 1543 1545 1545 1546 1546 1547 1548 1549 1550 1552 1553 1554 1556 1558 1559 1561 1564 1565 1566 1567 1567 1568 1567 1569 1567 1565 1570 1571 1571 1572 1572 1572 1574 1574 1574 1574 1574 1574 1575 1575 1575 1575 1576 1576 1576 1576 1577 1577 1577 1577 1577 1577 1577 1577 1577 1577 1576 1576 1576
1501 1502 1503 1504 1504 1505 1507 1509 1511 1512 1514 1519 1523 1524 1526 1527 1527 1529 1532 1534 1536 1538 1539 1540 1541 1542 1543 1544 1545 1546 1546 1547 1548 1549 1550 1551 1552 1554 1555 1557 1559 1561 1563 1565 1566 1566 1566 1567 1567 1568 1566 1565 1569 1570 1571 1572 1572 1572 1573 1573 1574 1574 1574 1574 1575 1575 1575 1576 1576 1576 1576 1576 1577 1577 1577 1577 1577 1577 1577 1577 1577 1577 1577 1577 1577
1499 1500 1501 1502 1502 1504 1505 1507 1509 1509 1514 1519 1521 1523 1525 1526 1526 1528 1531 1534 1536 1537 1538 1539 1540 1541 1542 1544 1545 1545 1545 1546 1547 1548 1549 1550 1551 1553 1555 1557 1558 1561 1563 1564 1565 1565 1566 1566 1566 1568 1565 1564 1569 1570 1571 1572 1572 1573 1573 1573 1574 1574 1574 1574 1575 1576 1576 1576 1576 1576 1576 1576 1577 1577 1577 1577 1577 1577 1577 1577 1577 1578 1578 1578 1578
1499 1499 1500 1500 1501 1502 1504 1506 1508 1509 1515 1518 1520 1523 1524 1525 1526 1529 1532 1535 1537 1537 1538 1538 1539 1541 1542 1543 1544 1544 1544 1545 1546 1547 1548 1549 1551 1552 1554 1556 1558 1560 1562 1563 1563 1564 1565 1565 1566 1567 1564 1564 1568 1570 1570 1570 1571 1573 1573 1574 1574 1574 1573 1573 1575 1576 1575 1576 1576 1576 1576 1577 1577 1577 1577 1577 1577 1577 1577 1577 1578 1578 1578 1578 1579
1499 1499 1499 1499 1501 1502 1504 1507 1509 1510 1514 1517 1521 1523 1523 1525 1529 1531 1534 1536 1537 1537 1537 1537 1538 1540 1541 1542 1542 1542 1543 1544 1545 1546 1547 1548 1550 1552 1553 1555 1557 1559 1561 1562 1562 1563 1564 1565 1565 1565 1564 1564 1567 1569 1570 1569 1570 1573 1573 1574 1574 1574 1573 1574 1575 1575 1575 1576 1576 1576 1576 1577 1577 1577 1577 1577 1577 1577 1577 1577 1577 1578 1578 1578 1579
1499 1499 1499 1500 1502 1504 1506 1508 1509 1511 1515 1519 1522 1523 1523 1527 1530 1532 1534 1536 1537 1537 1536 1537 1538 1539 1540 1540 1541 1541 1541 1542 1544 1545 1546 1547 1549 1551 1552 1554 1557 1559 1560 1561 1562 1563 1563 1564 1564 1564 1563 1566 1567 1569 1571 1570 1570 1572 1573 1574 1574 1574 1574 1574 1574 1574 1575 1575 1576 1576 1577 1577 1577 1577 1577 1577 1577 1577 1577 1577 1578 1578 1578 1579 1579
1498 1499 1500 1502 1504 1507 1509 1511 1512 1515 1519 1522 1524 1525 1526 1528 1530 1531 1532 1534 1535 1536 1535 1536 1537 1537 1538 1539 1539 1540 1540 1541 1542 1543 1545 1546 1548 1550 1552 1553 1556 1558 1559 1560 1561 1562 1563 1563 1563 1564 1564 1565 1568 1568 1570 1571 1571 1572 1573 1573 1574 1574 1574 1573 1573 1573 1574 1575 1576 1576 1577 1577 1577 1577 1577 1577 1577 1577 1577 1577 1578 1578 1578 1579 1579
1497 1499 1502 1504 1506 1509 1510 1511 1513 1518 1522 1523 1525 1527 1527 1527 1529 1529 1530 1531 1533 1534 1534 1534 1535 1535 1536 1537 1538 1538 1538 1539 1541 1542 1544 1546 1548 1550 1551 1552 1555 1557 1558 1559 1561 1561 1563 1563 1563 1564 1564 1565 1568 1569 1569 1570 1571 1572 1572 1573 1574 1574 1574 1573 1573 1573 1574 1575 1576 1576 1577 1577 1577 1577 1577 1577 1577 1577 1577 1577 1577 1578 1578 1579 1579
1497 1500 1503 1505 1507 1508 1508 1509 1513 1517 1520 1522 1523 1524 1524 1525 1526 1526 1527 1528 1529 1530 1531 1531 1532 1533 1534 1535 1536 1537 1537 1538 1540 1541 1543 1545 1547 1549 1550 1551 1553 1556 1557 1558 1560 1560 1561 1562 1563 1564 1565 1565 1568 1569 1569 1569 1570 1572 1572 1573 1573 1574 1574 1574 1573 1574 1575 1575 1576 1576 1577 1577 1577 1577 1577 1577 1577 1577 1577 1577 1577 1577 1578 1579 1579
1497 1500 1503 1505 1506 1506 1506 1509 1514 1517 1519 1522 1523 1523 1524 1524 1524 1525 1525 1526 1527 1528 1529 1529 1530 1531 1532 1533 1534 1536 1536 1537 1539 1540 1542 1544 1546 1548 1549 1551 1552 1554 1556 1558 1559 1560 1560 1562 1563 1564 1564 1565 1567 1568 1569 1569 1570 1571 1571 1572 1573 1573 1573 1573 1573 1574 1575 1576 1576 1576 1577 1577 1577 1577 1577 1577 1577 1577 1577 1577 1577 1578 1578 1579 1579
1497 1499 1503 1506 1505 1504 1505 1508 1513 1517 1519 1521 1521 1521 1521 1521 1522 1522 1522 1522 1523 1524 1525 1527 1527 1528 1530 1531 1532 1534 1534 1536 1537 1539 1541 1543 1545 1547 1549 1550 1552 1553 1555 1557 1558 1559 1560 1561 1562 1563 1564 1565 1566 1567 1568 1569 1570 1570 1570 1570 1571 1572 1572 1572 1572 1574 1575 1575 1576 1576 1576 1577 1577 1577 1577 1577 1577 1577 1577 1577 1577 1578 1578 1579 1579
1496 1499 1505 1508 1506 1505 1505 1506 1511 1514 1517 1518 1519 1519 1518 1518 1519 1518 1518 1518 1518 1519 1521 1523 1524 1525 1528 1529 1531 1532 1533 1534 1536 1538 1540 1542 1545 1546 1548 1549 1551 1553 1553 1555 1557 1557 1558 1560 1561 1562 1564 1565 1566 1567 1568 1568 1569 1569 1569 1569 1569 1569 1569 1570 1572 1573 1574 1575 1576 1576 1576 1577 1577 1577 1576 1577 1577 1577 1577 1577 1577 1577 1578 1579 1579
1495 1500 1507 1509 1508 1507 1505 1505 1509 1511 1514 1515 1516 1516 1516 1516 1516 1516 1517 1516 1516 1518 1519 1521 1523 1524 1526 1528 1529 1531 1532 1534 1536 1537 1539 1542 1543 1545 1546 1548 1550 1551 1552 1554 1556 1557 1558 1559 1560 1562 1564 1565 1566 1567 1567 1567 1567 1567 1568 1568 1568 1568 1568 1569 1570 1571 1573 1574 1575 1576 1576 1576 1577 1577 1577 1577 1577 1577 1577 1577 1577 1577 1578 1579 1579
1495 1500 1505 1506 1507 1508 1506 1506 1508 1509 1512 1513 1513 1513 1514 1514 1515 1515 1516 1517 1518 1519 1519 1520 1522 1523 1525 1526 1528 1530 1532 1534 1536 1537 1539 1541 1542 1544 1546 1547 1548 1550 1552 1553 1555 1556 1557 1558 1560 1561 1563 1564 1565 1566 1566 1566 1567 1567 1567 1567 1567 1567 1568 1569 1569 1570 1571 1573 1575 1575 1575 1576 1577 1577 1577 1577 1577 1577 1577 1577 1577 1577 1578 1579 1580
1497 1502 1503 1501 1503 1504 1504 1504 1506 1508 1510 1512 1512 1512 1512 1513 1514 1514 1515 1517 1518 1520 1520 1520 1521 1523 1524 1525 1527 1529 1531 1534 1535 1537 1539 1540 1542 1543 1545 1546 1547 1549 1551 1553 1554 1555 1556 1558 1559 1561 1563 1564 1564 1565 1565 1566 1566 1566 1566 1566 1566 1566 1567 1568 1570 1570 1571 1572 1573 1574 1574 1575 1576 1577 1577 1577 1577 1577 1577 1577 1577 1578 1579 1579 1580
1497 1502 1501 1498 1498 1500 1501 1502 1504 1507 1509 1509 1510 1510 1512 1513 1513 1514 1515 1516 1518 1520 1520 1520 1521 1522 1524 1525 1527 1528 1531 1533 1534 1536 1538 1539 1541 1542 1544 1545 1547 1548 1550 1551 1553 1554 1555 1557 1559 1561 1562 1563 1564 1564 1565 1565 1566 1566 1566 1565 1565 1565 1566 1567 1569 1570 1571 1572 1572 1573 1574 1575 1575 1576 1577 1577 1577 1577 1578 1578 1578 1579 1579 1580 1580
1494 1497 1497 1494 1494 1495 1498 1500 1503 1506 1507 1508 1509 1510 1511 1512 1513 1514 1515 1516 1517 1519 1520 1521 1521 1522 1523 1525 1527 1529 1531 1532 1534 1535 1537 1538 1540 1542 1543 1545 1546 1547 1549 1550 1552 1554 1555 1557 1559 1560 1562 1563 1563 1564 1564 1565 1565 1565 1565 1565 1565 1566 1566 1567 1568 1569 1570 1571 1571 1573 1574 1575 1576 1576 1577 1578 1578 1578 1578 1579 1579 1580 1580 1581 1581